Tracking 30923 objects as of 1-Jul-2025
HD Live streaming from Space Station
objects crossing your sky now

SL-6 R/B(2)

Track SL-6 R/B(2) now!


NORAD ID: 20333
Int'l Code: 1989-091D
Perigee: 6,284.6 km
Apogee: 33,460.3 km
Inclination: 69.5 °
Period: 705.2 minutes
Semi major axis: 26243 km
RCS: 6.5159 m2 (large)
Launch date: November 23, 1989
Source: Commonwealth of Independent States (former USSR) (CIS)
Launch site: PLESETSK MISSILE AND SPACE COMPLEX (PKMTR)

Note: This is a ROCKET BODY
Your satellite tracking list
Your tracking list is empty




NASA's NSSDC Master Catalog

Two Line Element Set (TLE):
1 20333U 89091D   25180.14170519  .00000493  00000-0  00000-0 0  9998
2 20333  69.4915 150.9739 5177603  57.6133  62.7353  2.04207487238503
Source of the keplerian elements: AFSPC